Regional Weather Roundup
Issued by NWS

Home | Current Version | Previous Version | Graphics & Text | Print | Product List | Glossary Off
Versions: 1 2 3 4 5 6 7 8 9 10 11 12 13 14 15 16 17 18 19 20 21 22 23 24 25 26 27 28 29 30 31 32 33 34 35 36 37 38 39 40 41 42 43 44 45 46 47 48 49 50

000
ASUS43 KMKX 222221
RWRWI

WISCONSIN REGIONAL WEATHER ROUNDUP
NATIONAL WEATHER SERVICE MILWAUKEE/SULLIVAN WI
500 PM CDT WED OCT 22 2014

NOTE: "FAIR" INDICATES FEW OR NO CLOUDS BELOW 12,000 FEET WITH NO
SIGNIFICANT WEATHER AND/OR OBSTRUCTIONS TO VISIBILITY.

WIZ001-002-006>008-014>016-023>028-222300-
NORTHWEST WISCONSIN

CITY           SKY/WX    TMP DP  RH WIND       PRES   REMARKS
SUPERIOR ARPT  CLOUDY    58  39  48 SE6       30.06F
ASHLAND        PTCLDY    58  31  35 S6        30.11F
HAYWARD        SUNNY     57  32  38 S15G21    30.11F
SIREN          SUNNY     56  36  46 SE12      30.07F
CUMBERLAND     CLOUDY    54  34  47 SE12      30.10F
RICE LAKE      CLOUDY    55  34  45 SE14      30.14F
CHETEK         PTSUNNY   56  35  45 SE13      30.13F
LADYSMITH      SUNNY     55  32  40 SE13      30.17F
EAU CLAIRE     MOSUNNY   59  32  36 S13       30.14F
MENOMONIE      CLOUDY    57  34  41 SE14      30.13F
NEW RICHMOND   PTSUNNY   55  38  52 S18       30.09F
OSCEOLA        SUNNY     56  39  52 SE16G24   30.11S
$$

WIZ003>005-009-010-017-018-222300-
NORTH CENTRAL WISCONSIN

CITY           SKY/WX    TMP DP  RH WIND       PRES   REMARKS
MANITOWISH WTR CLEAR     53  26  35 S14G20    30.16F
ARBOR VITAE    PTCLDY    55  25  31 S12G20    30.19F
WOODRUFF       PTCLDY    55  25  31 S12G20    30.19F
RHINELANDER    PTCLDY    52  26  36 S7        30.21F
EAGLE RIVER    PTCLDY    53  22  29 S9        30.20F
LAND O LAKES   PTCLDY    53  26  35 SE7       30.20F
PHILLIPS       CLEAR     54  30  40 S14G21    30.16F
TOMAHAWK       CLEAR     53  29  40 S5        30.21F
MEDFORD        CLEAR     53  32  45 SE8       30.19F
MERRILL        CLEAR     54  32  43 S6        30.22F
$$

WIZ029-030-035-036-043>047-222300-
CENTRAL WISCONSIN

CITY           SKY/WX    TMP DP  RH WIND       PRES   REMARKS
WAUSAU         CLEAR     53  33  46 SE10      30.22F
MOSINEE        CLEAR     54  34  47 SE9       30.24F
MARSHFIELD     CLEAR     55  34  45 SE8       30.21F
STEVENS POINT  CLEAR     54  34  47 SE7       30.23F
WAUPACA        PTCLDY    57  39  50 E8        30.25F
WAUTOMA        CLOUDY    56  36  47 SE7       30.24F
WISC RAPIDS    CLEAR     56  34  43 SE7       30.24S
CAMP DOUGLAS   MOSUNNY   57  37  47 SE7       30.21F
$$

WIZ011>013-019>022-031-037>040-048>050-222300-
NORTHEAST WISCONSIN

CITY           SKY/WX    TMP DP  RH WIND       PRES   REMARKS
ANTIGO         CLEAR     49  33  53 SE8       30.24F
SHAWANO        CLEAR     53  37  54 SE7       30.27S
OCONTO         PTCLDY    49  39  67 SE6       30.28F
STURGEON BAY   CLEAR     43  34  70 SE8       30.30F
GREEN BAY      CLEAR     53  36  52 SE8       30.27F
MANITOWOC      CLEAR     47  39  74 SE12      30.30F
APPLETON       PTCLDY    52  37  58 SE8       30.27F
CLINTONVILLE   CLEAR     52  36  54 SE7       30.26S
OSHKOSH        CLEAR     54  40  59 E8        30.25F
$$

WIZ032>034-041-042-053>061-222300-
SOUTHWEST WISCONSIN

CITY           SKY/WX    TMP DP  RH WIND       PRES   REMARKS
LA CROSSE      SUNNY     60  37  42 S12       30.17F
SPARTA         SUNNY     59  33  37 SE7       30.20F
VIROQUA        SUNNY     57  36  44 S9        30.20F
BOSCOBEL       SUNNY     60  36  40 S8        30.21F
PRAIRIE DU CHI SUNNY     59  37  43 SE9       30.19F
PLATTEVILLE    SUNNY     58  36  42 SE10      30.22F
$$

WIZ056-057-062-063-064-067-068-222300-
SOUTH CENTRAL WISCONSIN

CITY           SKY/WX    TMP DP  RH WIND       PRES   REMARKS
REEDSBURG      SUNNY     57  37  46 SE6       30.22F
BARABOO/DELLS  SUNNY     56  35  44 S10       30.23F
LONE ROCK      SUNNY     61  38  42 S7        30.22F
MINERAL POINT  SUNNY     59  34  38 S7        30.22F
MADISON        MOSUNNY   58  35  42 S10       30.24F
MIDDLETON      SUNNY     60  33  36 SE8       30.23F
WATERTOWN      CLEAR     56  38  51 SE5       30.25F
MONROE         SUNNY     55  37  50 SE10      30.23F
JANESVILLE     SUNNY     61  36  39 S8        30.24F
$$

WIZ051-052-058>065-066-070>072-222300-
SOUTHEAST WISCONSIN

CITY           SKY/WX    TMP DP  RH WIND       PRES   REMARKS
MILWAUKEE      PTCLDY    49  39  68 SE10      30.29F
WAUKESHA       CLEAR     50  39  66 E10       30.28F
MILWAUKEE/TIMM CLEAR     48  37  66 SE8       30.29F
RACINE         CLEAR     49  38  65 SE8       30.31F
BURLINGTON     CLEAR     53  38  58 SE8       30.26F
KENOSHA        CLEAR     50  40  68 SE9       30.29F
FOND DU LAC    CLEAR     55  38  52 S9        30.25F
SHEBOYGAN      CLEAR     48  37  65 SE8       30.29F
WEST BEND      CLEAR     48  37  66 E8        30.28S
JUNEAU         CLEAR     55  40  57 SE7       30.26F
$$

LSZ147-162-222300-
LAKE SUPERIOR

STATION/POSITION TIME  TEMP    WIND        PRES    WAVE
                       AIR SEA DIR/SP/G            HT/PER
                 (UTC) (F)     (DEG/KT/KT) (MB)    (FT/S)
W MID LAKE BUOY  2150   47 46   90/ 10/ 10 1021.3F   1/ 3
DEVILS ISLAND    2200   48      80/ 12/ 13 1020.1F
PORT WING        2100   60     180/  8/ 12 1019.3F
SAXON HARBOR     2100   62     200/ 10/ 18 1020.3F
$$

LMZ867-665-643>646-222300-
LAKE MICHIGAN

STATION/POSITION TIME  TEMP    WIND        PRES    WAVE
                       AIR SEA DIR/SP/G            HT/PER
                 (UTC) (F)     (DEG/KT/KT) (MB)    (FT/S)
CHAMBERS ISLAND  2100   48      80/  5/  6 1026.4F
N MID LAKE BUOY  2150   42 51  140/  6/  8 1027.1F   1
NORTHPORT PIER   2100   44     130/  9/ 11 1026.8F
SISTER BAY       2128          130/ 10/ 13   N/A
KEWAUNEE LAKESHO 2200   45     140/  6/ 10 1025.0F
SHEBOYGAN LAKESH 2200   47 50  130/ 11/ 12 1026.3F
PORT WASHINGTON  2100   50     140/  8/ 10 1026.8F
ATWATER BUOY     2200   49     130/ 10/ 14 1026.3F
MILWAUKEE LAKESH 2200   48     130/ 10/ 11   N/A
S MID LAKE BUOY  2150   47 55   50/  4/  6 1026.7F   1
KENOSHA   LAKESH 2200   52     140/  7/  9 1025.4F
$$

TC  - TEMPERATURE IN CELSIUS
VSB - VISIBILITY IN STATUTE MILES
WCI - WIND CHILL INDEX
HX  - HEAT INDEX




USA.gov is the U.S. government's official web portal to all federal, state and local government web resources and services.